sat.trackr.live / text

‹ back to catalog

PAYLOAD B

NORAD 49113 · 2021-076B

PAYLOAD ACTIVE UNKNOWN

§ Identity

Operator
Country
PRC
Launch date
2021-08-24
Launch site
JSC
Launch vehicle
Mass (kg)
RCS (m²)

External: N2YO · Heavens-Above · Gunter

§ Orbital elements

Epoch: 2026-05-25T05:03:52.319808Z

Period
102.17 min
Inclination
86.4016°
Eccentricity
0.0017494
Mean motion
14.09457815 rev/d
Perigee alt
848.6 km
Apogee alt
873.9 km
Semi-major
7,239.4 km
B*
8.1079e-5
RAAN
92.2343°
Arg perigee
281.2087°
Mean anomaly
78.7129°
Rev number
24,419

§ Raw data

PAYLOAD B1 49113U 21076B   26145.21102222  .00000160  00000+0  81079-4 0  99992 49113  86.4016  92.2343 0017494 281.2087  78.7129 14.09457815244199

JSON: /api/v1/satellites/49113 · /tle

For live sub-satellite position, see the globe view (requires WebGL).

§ Visibility from observer

Set your observer location to see the next 7 days of passes ≥ 10°. The values pass through the URL so the page stays shareable.

No JS? Fill the form by hand. The geolocation button needs JavaScript.